Tracking 29510 objects as of 16-Sep-2024
HD Live streaming from Space Station
objects crossing your sky now

FENGYUN 1C DEB

Track FENGYUN 1C DEB now!
10-day predictions


NORAD ID: 31018
Int'l Code: 1999-025BDL
Perigee: 816.6 km
Apogee: 904.0 km
Inclination: 99.0 °
Period: 102.0 minutes
Semi major axis: 7231 km
RCS: 0.0147 m2 (small)
Launch date: May 10, 1999
Source: People's Republic of China (PRC)
Launch site: Taiyaun Space Center, China (TSC)

Note: This is SATELLITE DEBRIS
Your satellite tracking list
Your tracking list is empty




NASA's NSSDC Master Catalog

Two Line Element Set (TLE):
1 31018U 99025BDL 24259.14654797  .00008015  00000-0  43386-2 0  9993
2 31018  99.0457 334.5138 0060413 327.0639  32.6774 14.11827285896416
Source of the keplerian elements: AFSPC